Regional Weather Roundup
Issued by NWS

Home | Current Version | Previous Version | Graphics & Text | Print | Product List | Glossary On
Versions: 1 2 3 4 5 6 7 8 9 10 11 12 13 14 15 16 17 18 19 20 21 22 23 24 25 26 27 28 29 30 31 32 33 34 35 36 37 38 39 40 41 42 43 44 45 46 47 48 49 50
000
ASUS43 KBIS 240402
RWRND

NORTH DAKOTA REGIONAL WEATHER ROUNDUP
NATIONAL WEATHER SERVICE BISMARCK ND
1000 PM CST THU NOV 23 2017

NOTE: "FAIR" INDICATES FEW OR NO CLOUDS BELOW 12,000 FEET WITH NO
SIGNIFICANT WEATHER AND/OR OBSTRUCTIONS TO VISIBILITY.


NDZ001>003-009>011-017-240500-
NORTHWEST NORTH DAKOTA

CITY           SKY/WX    TMP DP  RH WIND       PRES   REMARKS
WILLISTON      CLEAR     50  35  56 SW8       29.36F
MINOT          PTCLDY    59  37  44 SW20      29.31F
MINOT AFB      PTCLDY    55  37  52 W14       29.29F
$$

NDZ018>021-031>035-040>046-240500-
SOUTHWEST NORTH DAKOTA

CITY           SKY/WX    TMP DP  RH WIND       PRES   REMARKS
BISMARCK       CLEAR     53  36  52 W7        29.44F
DICKINSON      CLEAR     54  35  48 SW18      29.45F
GARRISON         N/A     51  38  60 SW13      29.37F
HETTINGER ARPT CLEAR     46  34  62 CALM      29.54F
$$

NDZ004>008-012>016-024-026-027-054-240500-
NORTHEAST NORTH DAKOTA

CITY           SKY/WX    TMP DP  RH WIND       PRES   REMARKS
GRAND FORKS    CLOUDY    39  35  86 SW14      29.31F
GRND FRKS AFB  CLEAR     44  36  74 W14       29.31F
DEVILS LAKE    CLEAR     48  36  63 SW16      29.31F
$$

NDZ022-023-025-028>030-036>039-047>053-240500-
SOUTHEAST NORTH DAKOTA

CITY           SKY/WX    TMP DP  RH WIND       PRES   REMARKS
FARGO          CLEAR     41  35  79 S10       29.41F
JAMESTOWN      CLEAR     52  37  56 SW13      29.40F
$$




USA.gov is the U.S. government's official web portal to all federal, state and local government web resources and services.